Helicity
48 51 47 29 26 18 36 124 183 176 302 257 250 185 276 169 166 169 119 73 21 34 13 103 159 162 179 54 98 228 168 106 89 8 -21 40 90 141 137 181 181 165 117 16
41 41 39 40 6 11 74 160 209 132 305 278 213 191 135 229 257 205 164 101 47 -38 40 49 -7 82 119 72 22 173 192 227 95 82 56 59 95 100 162 133 141 142 123 68
37 39 33 39 23 12 86 159 230 301 275 343 177 196 109 119 79 89 152 129 83 65 77 111 79 65 148 141 -33 6 41 104 136 110 101 80 145 95 143 150 145 127 113 111
33 31 32 44 48 37 91 157 222 299 320 286 246 155 116 84 117 74 61 69 28 65 30 37 82 108 57 42 37 10 -15 73 149 120 116 82 75 122 116 137 160 167 92 115
21 21 31 44 50 51 133 128 228 263 281 224 209 199 145 89 56 131 88 69 60 46 69 125 95 80 78 61 91 55 -41 -40 -32 22 158 264 76 78 109 120 135 128 136 98
-2 2 16 17 28 37 151 129 158 217 181 194 222 108 77 91 84 17 -13 5 38 59 25 21 43 63 85 80 126 98 27 -60 -92 -77 103 219 135 50 70 107 83 72 86 124
-1 -9 -18 -22 -5 61 202 206 235 247 171 94 96 70 58 47 94 44 52 -36 26 41 55 40 53 71 61 77 132 135 71 80 -32 -288 -149 36 144 311 144 69 100 170 208 100
3 -3 -3 2 20 80 185 222 264 259 30 137 67 129 84 32 63 66 52 62 45 27 20 57 72 38 40 77 113 166 150 59 -12 -102 -328 -193 -34 147 206 132 35 85 144 119
49 53 41 53 62 70 133 171 259 366 250 91 191 128 180 221 156 100 110 120 80 63 65 81 103 90 100 81 102 180 176 172 101 36 -122 -433 -246 -68 -15 28 43 67 56 92
52 64 72 78 84 47 123 300 295 389 324 312 186 220 171 226 265 184 131 102 75 79 111 118 112 121 112 123 97 156 213 210 117 91 18 -102 -143 -31 -14 71 92 67 163 212
23 31 35 42 53 41 94 234 185 256 218 287 268 211 177 170 247 249 124 105 111 163 193 173 139 115 103 98 130 177 195 174 173 140 21 -103 -7 109 36 183 280 102 168 224
39 30 29 35 49 57 102 222 176 174 209 148 177 92 220 236 168 207 194 145 106 149 178 174 175 170 172 118 132 165 206 221 110 102 42 66 14 7 -25 71 232 403 186 146
22 24 23 31 42 42 99 210 208 233 182 132 168 158 56 143 74 80 188 164 143 107 174 163 138 165 120 175 147 146 166 157 192 122 44 75 146 79 5 -52 -2 52 186 252
41 46 34 29 37 50 100 179 217 257 200 186 123 93 12 89 122 112 99 87 184 138 152 175 184 149 127 132 132 135 129 111 59 32 22 60 17 10 39 -24 -57 -29 7 129
54 61 59 48 37 42 110 250 265 198 254 66 94 85 89 63 60 27 93 103 147 150 166 206 191 136 140 31 142 160 196 119 71 39 84 70 37 5 31 29 53 44 27 -3
18 53 66 78 55 50 161 188 152 180 129 123 70 90 105 72 84 39 85 99 121 92 96 169 122 148 114 60 103 151 90 141 65 29 82 62 51 9 52 69 117 133 103 117
-2 11 20 37 41 78 162 126 88 177 130 29 78 79 118 125 124 90 60 93 107 90 75 90 97 70 68 95 194 192 244 271 168 97 64 70 105 105 167 164 122 89 90 118
41 56 62 49 155 209 128 112 59 223 127 4 61 89 132 96 128 164 89 101 125 83 104 92 57 27 183 82 136 283 189 181 180 280 100 113 115 151 180 179 148 137 116 128
62 156 200 300 245 172 142 64 166 208 74 -19 113 89 57 75 120 76 111 101 115 121 151 102 92 154 87 105 158 177 149 135 170 226 150 112 135 104 129 156 182 144 150 135
118 186 147 137 118 166 252 134 108 30 64 88 61 83 62 54 78 85 70 79 81 93 176 167 171 118 170 137 93 83 83 93 101 141 154 160 104 85 108 112 119 125 119 97
192 188 192 216 200 253 177 80 78 123 105 95 92 85 52 43 51 41 31 60 70 52 71 114 114 161 149 90 78 73 96 83 125 124 170 146 158 102 69 102 130 133 177 204
101 223 195 217 196 202 121 137 116 110 79 104 93 89 76 68 53 42 40 39 53 48 119 115 65 86 115 113 108 109 102 75 89 144 113 135 135 163 181 160 161 171 225 227
141 158 152 110 133 64 54 65 98 82 108 117 124 78 63 58 68 44 32 38 49 68 115 110 102 91 89 101 108 138 113 177 188 171 151 141 194 234 197 179 170 204 272 275
49 45 38 39 50 45 83 126 123 132 130 103 82 81 57 42 66 63 70 95 98 79 85 110 110 119 114 106 116 151 207 241 243 221 239 247 245 255 277 273 243 254 278 281
16 35 30 41 93 135 172 172 125 141 146 90 70 44 28 51 41 87 97 106 95 100 117 129 157 142 136 127 133 136 155 194 213 196 218 229 215 224 232 218 187 175 176 185
15 32 57 123 102 201 190 167 136 141 114 73 57 -2 -24 5 -3 3 39 54 103 65 79 174 179 178 160 145 139 131 109 112 119 130 127 126 128 119 109 129 153 153 139 137
25 46 90 103 93 124 162 155 152 129 69 20 6 -14 -18 -17 -12 26 43 71 90 117 216 214 177 124 109 105 118 116 110 127 130 119 113 95 84 85 112 132 109 116 122 123
Wind_Speed
83 83 81 74 66 57 50 51 68 32 26 51 58 73 60 59 53 58 65 59 62 68 65 64 55 51 45 45 42 45 44 58 81 82 76 64 61 69 58 64 61 62 73 94
87 88 86 80 70 56 43 55 53 36 38 71 69 59 62 66 55 56 49 56 60 64 70 68 63 59 46 41 44 47 49 53 73 81 70 58 71 66 66 65 63 63 65 80
96 95 89 79 72 69 53 45 57 49 56 60 63 65 66 60 65 74 59 58 55 60 63 63 68 63 53 56 45 48 50 55 63 74 74 61 66 67 65 63 78 82 77 87
99 93 84 77 80 78 59 53 60 54 65 66 59 57 60 64 62 50 52 69 71 64 64 62 75 76 68 62 50 48 51 66 67 76 82 83 91 77 65 70 75 80 87 89
103 100 90 93 92 88 76 61 62 55 64 58 59 66 66 65 60 56 59 65 59 52 70 69 69 68 71 64 56 50 47 69 68 77 69 71 90 95 100 81 69 77 83 94
103 103 103 103 103 101 83 74 64 60 71 72 66 95 101 78 78 73 83 66 67 65 72 68 74 66 69 72 72 66 61 58 68 88 73 82 79 94 96 96 95 76 85 78
94 97 101 105 110 103 79 65 61 71 90 104 107 88 98 100 89 88 63 75 65 46 45 53 57 63 68 62 64 58 64 61 60 78 74 87 68 82 82 98 92 79 81 76
95 100 105 109 110 84 73 65 70 70 115 95 99 94 81 78 78 80 71 61 56 57 60 59 59 52 55 62 56 54 53 64 73 76 81 87 100 66 71 80 100 86 90 87
74 80 92 96 86 75 75 79 64 66 84 113 74 81 75 73 73 70 74 60 48 48 52 48 58 56 51 51 45 43 48 56 72 70 77 91 88 76 86 80 109 72 81 97
63 65 65 65 71 76 73 61 64 62 70 62 58 81 87 70 59 65 58 58 58 55 56 59 65 66 51 60 54 50 47 52 67 74 77 80 78 69 70 77 75 56 54 53
62 60 58 57 58 56 57 57 60 71 73 64 53 59 66 66 61 61 49 43 47 44 50 55 54 57 50 59 56 57 58 57 62 65 81 93 61 52 58 70 70 57 55 52
62 61 59 58 56 56 53 57 48 54 67 66 67 71 71 67 63 52 47 48 38 36 42 49 49 61 56 54 73 49 72 65 69 63 76 67 71 66 50 53 69 78 65 55
52 57 59 59 55 53 53 52 43 48 53 60 67 67 57 58 63 59 54 54 44 44 41 42 50 62 54 66 66 61 62 51 68 72 78 84 84 77 72 70 67 67 70 65
47 44 43 43 45 48 48 52 44 46 47 69 65 60 74 53 54 50 56 54 48 46 43 50 53 58 53 70 66 63 63 60 85 97 85 84 84 76 75 71 67 58 53 61
44 44 42 41 40 41 42 44 40 38 42 47 64 54 58 53 51 55 53 50 46 49 53 54 58 55 57 53 51 56 53 59 67 78 63 68 76 70 68 55 56 55 55 54
44 35 36 39 36 37 33 39 57 50 46 40 42 45 51 49 53 51 46 47 52 50 48 43 46 54 54 64 76 54 44 49 50 62 72 72 77 62 55 49 52 51 49 51
74 42 34 39 46 37 41 37 39 42 40 35 39 33 38 47 38 47 50 49 46 48 57 60 57 59 53 50 47 53 57 61 61 59 62 55 52 55 52 44 44 43 45 49
42 43 51 40 36 41 60 52 45 50 47 43 32 28 30 31 34 39 37 41 50 50 51 50 56 58 57 61 53 58 55 57 50 57 50 53 55 51 51 47 48 50 54 55
66 54 52 53 51 52 53 33 40 56 50 44 37 37 32 39 31 29 35 36 48 50 58 57 45 49 43 44 53 58 56 57 60 61 51 48 44 47 47 46 47 47 51 52
70 62 59 56 56 50 37 51 56 52 41 45 33 30 31 39 32 37 34 35 36 47 48 33 48 52 45 47 52 51 50 51 55 56 50 52 49 49 47 46 45 45 48 48
39 51 53 59 58 39 41 39 41 36 31 32 35 30 25 27 37 39 36 32 33 33 34 45 51 57 52 48 47 48 49 47 47 44 41 43 44 45 46 45 43 42 41 42
45 54 47 38 31 32 33 35 38 38 43 38 38 31 29 31 29 32 33 34 31 43 36 45 54 49 44 46 44 44 41 38 37 36 33 34 33 36 37 39 40 40 37 35
32 28 29 28 27 31 41 46 39 39 37 35 36 36 31 27 26 34 36 41 43 34 40 46 43 41 40 40 40 38 34 34 35 34 30 28 33 34 33 33 34 33 33 30
32 33 35 31 34 33 35 39 37 34 32 34 38 31 29 28 28 34 32 32 32 39 42 44 39 35 34 34 33 30 30 32 33 32 30 30 31 31 31 31 29 28 28 29
30 27 29 28 29 29 33 32 33 30 32 31 38 34 34 28 33 31 30 31 32 35 36 32 28 25 24 22 23 23 23 28 29 30 31 33 32 32 32 33 33 35 35 34
26 22 33 25 30 27 27 27 30 31 32 35 35 41 36 30 32 32 31 35 33 31 13 19 18 19 16 17 19 19 26 29 32 33 34 34 34 33 34 34 37 39 39 38
25 29 16 24 31 34 33 36 34 33 34 39 37 36 36 32 30 27 24 28 32 32 18 19 20 18 15 14 18 25 31 34 35 36 36 35 36 35 37 38 40 40 40 39
Wind_Direction
280 277 274 272 271 269 264 265 262 251 221 251 261 258 259 266 275 273 266 275 272 270 274 273 275 273 279 300 297 279 278 272 263 263 266 270 272 261 262 263 272 275 273 259
276 271 268 266 263 258 263 259 262 245 231 250 253 262 262 261 266 268 274 269 272 271 267 269 270 273 282 296 296 288 286 274 271 265 269 271 264 263 265 268 274 268 272 269
269 265 263 262 257 251 248 256 253 254 245 257 252 255 258 259 262 262 270 271 275 273 269 267 267 270 279 294 291 287 286 275 273 270 267 275 270 267 261 264 266 269 267 270
265 264 262 258 252 245 243 249 253 252 248 243 253 249 260 255 260 260 266 266 265 268 271 271 267 270 276 275 286 285 280 273 276 278 274 273 266 269 264 259 265 267 270 269
258 255 257 250 243 237 240 245 245 252 256 247 243 249 250 253 254 257 260 263 270 273 264 265 269 276 273 272 274 277 281 272 275 277 283 285 266 261 260 264 269 270 272 268
242 239 237 235 232 228 237 242 251 252 249 245 244 208 234 245 245 249 242 256 259 263 259 264 262 273 276 270 268 271 275 276 275 270 280 285 266 264 265 264 263 271 270 276
228 224 221 220 225 230 240 246 245 247 243 226 221 239 232 232 240 243 257 248 257 271 282 277 273 274 271 273 266 268 267 269 274 272 279 270 268 283 278 263 265 266 269 274
227 226 226 226 230 239 241 246 243 245 227 242 237 239 245 247 248 248 253 258 261 270 278 279 278 281 278 272 271 269 271 267 269 272 272 274 267 278 284 277 264 268 267 270
257 251 243 242 243 240 238 241 244 246 248 232 251 246 247 248 249 253 253 262 269 272 276 277 271 272 281 280 279 276 273 274 265 265 271 270 268 276 287 290 264 278 272 266
261 256 252 249 244 241 233 240 233 246 251 257 253 249 247 250 251 258 260 262 263 262 266 268 269 269 279 275 274 275 276 277 268 264 270 273 275 281 296 268 268 288 286 280
260 255 250 245 242 234 232 243 232 239 251 255 260 257 257 249 248 253 261 261 262 259 257 266 269 275 277 276 278 274 272 275 275 273 266 266 281 291 290 277 282 286 292 290
258 253 248 243 238 233 225 242 235 239 250 258 258 258 259 259 255 250 247 257 262 257 264 267 274 272 278 281 275 281 271 271 274 272 267 279 276 287 291 298 283 278 283 286
254 249 244 239 232 227 223 237 230 238 250 255 254 251 259 263 258 253 252 253 262 265 274 274 276 275 279 274 276 279 279 281 272 277 275 272 269 273 271 271 278 277 278 280
251 243 234 230 222 215 211 230 226 233 256 254 260 257 252 262 261 257 254 262 264 268 274 275 275 279 286 278 278 276 279 277 269 267 275 281 271 274 275 278 269 284 290 285
246 234 228 221 214 207 214 222 227 223 237 266 260 264 252 246 254 257 254 261 265 269 267 270 273 281 280 284 288 274 275 272 274 268 284 288 275 284 283 294 303 287 281 285
238 204 202 197 196 176 204 233 233 224 237 263 277 266 251 237 251 255 258 261 264 267 274 274 279 277 271 268 264 274 286 286 286 280 282 284 278 283 292 297 298 290 292 300
173 163 164 175 155 175 213 231 220 191 221 255 268 263 248 232 246 253 259 263 266 258 259 263 268 268 266 278 269 280 281 278 279 291 293 287 292 284 292 298 300 306 308 311
128 145 174 147 160 192 202 209 141 199 215 227 255 243 230 235 244 247 259 261 251 255 258 266 265 272 269 269 285 280 281 278 279 284 294 285 279 287 294 301 300 303 301 305
104 125 146 165 178 185 192 185 181 198 207 221 226 217 231 225 240 256 255 259 252 259 254 257 264 260 267 284 279 281 283 276 273 271 277 284 296 292 296 299 302 305 305 307
140 148 158 162 169 166 168 178 184 193 218 208 225 233 236 228 243 242 246 252 263 262 258 269 257 260 285 288 287 290 287 283 279 276 282 289 295 294 300 303 307 308 309 311
151 153 154 155 158 171 183 188 203 215 226 228 222 229 236 250 233 239 257 272 268 269 262 251 252 252 264 282 289 290 291 290 293 300 296 300 301 301 302 303 310 316 320 321
160 151 158 176 188 192 200 206 203 208 207 216 217 234 246 247 260 259 265 266 263 246 255 245 239 255 280 288 297 300 302 301 306 311 312 314 318 321 314 311 311 311 319 324
177 184 188 201 214 196 189 189 200 203 212 225 230 229 249 266 285 261 253 248 243 259 248 248 261 276 286 296 302 306 316 320 325 331 337 333 331 330 331 329 328 325 328 333
183 183 182 192 194 202 206 204 209 217 226 228 224 240 256 273 267 254 259 271 270 257 256 258 276 292 303 312 311 312 319 333 346 349 348 349 353 348 350 354 349 352 353 353
192 205 212 217 215 218 214 220 217 229 228 227 212 210 209 232 229 243 266 277 285 281 274 284 305 328 340 323 328 324 333 352 2 3 8 13 14 14 13 12 14 18 19 19
204 215 189 233 215 218 220 224 216 211 206 197 194 182 184 196 192 198 220 226 256 222 141 326 338 346 330 332 349 353 15 23 24 23 24 21 19 18 20 18 18 21 23 22
214 185 248 228 209 203 208 197 204 208 206 185 183 186 172 179 198 195 218 201 92 75 16 7 19 22 5 358 4 14 25 26 25 26 25 22 22 21 21 18 20 21 21 19